If you wish to contribute or participate in the discussions about articles you are invited to join SKYbrary as a registered user

 Actions

Bandar Abbas International Airport

From SKYbrary Wiki

OIKB
Airport
ICAO: OIKB – IATA: BND
Summary
Name Bandar Abbas International Airport
Region Middle East
Territory Iran IR.gif
Location Bandar Abbas, Homozgan
Serving Bandar Abbas
Elevation 6.706 m
22 ft6.706 m
Coordinates 27° 12' 34.19" N, 56° 22' 7.56" E
Runways
Designator Length Width Surface ROPS
03L/21R 3457 m11,341.864 ft
30 m98.425 ft
ASP yes/yes
03R/21L 3660 m12,007.874 ft
45 m147.638 ft
ASP yes/yes


METAR
Observation OIKB 140330Z 34004KT 6000 NSC 27/25 Q1015 A2998
Station Bandarabbass
Date/Time 14 October 2019 03:30:00
Wind direction 340°
Wind speed 04 kts
Lowest cloud amount nil significant cloud
Temperature 27°C
Dew point 25°C
Humidity 88%
QNH 1015 hPa
Weather condition n/a

International airport on eastern side of the city of Bandar Abbas, Iran.

Climatology

Warm desert climate (Köppen climate classification BWh).

Maps

Terrain

Loading map...

Airport Layout

Loading map...


Accidents & Serious Incidents at or in vicinity of OIKB

None on SKYbrary